Location: Be?chatów
(51.3665°N, 19.3745°E)
Time: 17:23:59
(UTC+00:00)

Cosmos 1725 Rocket - Pass Details

Date: 19 May 2025
Orbit: 961 x 989 km, 82.9° (Epoch: 21 June)

Event Time Altitude Azimuth Distance (km) Brightness Sun altitude
Rises 23:05:36 0° 351° (N) 3,664 8.4 -18.4°
Reaches altitude 10° 23:08:08 10° 353° (N) 2,715 7.5 -18.4°
Maximum altitude 23:14:20 70° 78° (ENE) 1,030 4.1 -18.2°
Enters shadow 23:18:19 24° 157° (SSE) 1,914 5.1 -18.1°
